Location: Cruquius
(52.3348°N, 4.6319°E)
Time: 14:07:40
(UTC+00:00)

Cosmos 1933 - Pass Details

Date: 12 May 2021
Orbit: 547 x 562 km, 82.5° (Epoch: 19 June)

Event Time Altitude Azimuth Distance (km) Brightness Sun altitude
Rises 20:05:36 0° 191° (SSW) 2,725 6.6 -5.7°
Reaches altitude 10° 20:07:46 10° 193° (SSW) 1,833 5.7 -6.0°
Maximum altitude 20:11:48 81° 282° (WNW) 566 3.5 -6.4°
Drops below altitude 10° 20:15:52 10° 9° (N) 1,840 6.5 -6.9°
Sets 20:18:02 0° 11° (N) 2,737 7.4 -7.1°
